Location: *
(28.2408°N, 53.4600°E)
Time: 09:59:05
(UTC+00:00)

IUS-18 SRM-1 - Pass Details

Date: 22 September 2019
Orbit: 286 x 20656 km, 27.8° (Epoch: 23 October)

Event Time Altitude Azimuth Distance (km) Brightness Sun altitude
Rises 15:34:40 0° 234° (SW) 6,670 8.5 -16.5°
Reaches altitude 10° 15:41:52 10° 223° (SW) 3,519 6.8 -18.0°
Maximum altitude 15:47:04 21° 176° (S) 1,479 4.3 -19.2°
Enters shadow 15:47:36 20° 164° (SSE) 1,386 4.1 -19.3°
